[Iaude] MPEC W96: 2016 WW7 [a=1.15,e=0.11,i=15.6,H=26.8]

mpec at si.edu mpec at si.edu
Sun Nov 27 01:13:37 EST 2016


M.P.E.C. 2016-W96                                Issued 2016 Nov. 27, 06:10 UT
 
     The Minor Planet Electronic Circulars contain information on unusual
         minor planets and routine data on comets.  They are published
    on behalf of Division F of the International Astronomical Union by the
          Minor Planet Center, Smithsonian Astrophysical Observatory,
                          Cambridge, MA 02138, U.S.A.

             Prepared using the Tamkin Foundation Computer Network

                              MPC at CFA.HARVARD.EDU
            URL http://www.minorplanetcenter.net/    ISSN 1523-6714


                                   2016 WW7
 
Observations:
     K16W07W* C2016 11 25.37723 04 58 47.07 +12 48 24.8          21.0 VqEW096G96
     K16W07W  C2016 11 25.38868 04 58 42.56 +12 54 02.9          20.2 VqEW096G96
     K16W07W  C2016 11 25.39677 04 58 39.45 +12 58 02.0          19.7 VqEW096G96
     K16W07W  C2016 11 25.42495304 58 27.81 +13 11 49.9          20.3 GUEW096H01
     K16W07W  C2016 11 25.43135204 58 25.39 +13 14 59.4          19.8 GUEW096H01
     K16W07W  C2016 11 25.43890504 58 22.54 +13 18 42.9          19.6 GUEW096H01
     K16W07W  C2016 11 25.44518904 58 20.18 +13 21 49.0          20.6 GUEW096H01
     K16W07W  C2016 11 25.47890 04 58 08.24 +13 38 36.5                qEW096I52
     K16W07W  C2016 11 25.48097 04 58 07.44 +13 39 36.0          19.1 VqEW096I52
     K16W07W  C2016 11 25.48173 04 58 07.14 +13 39 58.9          20.2 VqEW096I52
     K16W07W  C2016 11 25.48250 04 58 06.88 +13 40 21.3          18.9 VqEW096I52
     K16W07W  C2016 11 26.26370 04 54 17.79 +20 11 20.3                qEW096G96
     K16W07W  C2016 11 26.26538 04 54 17.08 +20 12 11.1          21.1 VqEW096G96
     K16W07W  C2016 11 26.26596 04 54 16.80 +20 12 30.5          20.2 VqEW096G96
     K16W07W  C2016 11 26.51144 04 52 42.023+22 16 00.58         20.3 wLEW096F51
     K16W07W  C2016 11 26.53872 04 52 29.932+22 29 28.84         20.3 wLEW096F51
     K16W07W KC2016 11 27.06913 04 49 26.39 +26 49 37.1          19.6 RqEW096104
     K16W07W KC2016 11 27.07119 04 49 25.59 +26 50 37.6          19.9 RqEW096104
     K16W07W KC2016 11 27.07737 04 49 22.76 +26 53 35.8          19.9 RqEW096104
 
Observer details:
104 San Marcello Pistoiese.  Observers P. Bacci, M. Maestripieri.  Measurers
    P. Bacci, L. Tesi, G. Fagioli.  0.60-m f/4 reflector + CCD.
F51 Pan-STARRS 1, Haleakala.  Observers B. Gibson, T. Goggia, S. Kahale,
    A. Schultz, M. Willman.  Measurers K. Chambers, S. Chastel, L. Denneau,
    H. Flewelling, M. Huber, E. Lilly, E. Magnier, R. Wainscoat, C. Waters,
    R. Weryk.  1.8-m Ritchey-Chretien + CCD.
G96 Mt. Lemmon Survey.  Observer G. J. Leonard.  Measurers E. J. Christensen,
    D. C. Fuls, A. R. Gibbs, A. D. Grauer, J. A. Johnson, R. A. Kowalski,
    S. M. Larson, G. J. Leonard, R. G. Matheny, R. L. Seaman, F. C. Shelly.
    1.5-m reflector + 10K CCD.
H01 Magdalena Ridge Observatory, Socorro.  Observers W. H. Ryan, E. V. Ryan.
    Measurer W. H. Ryan.  2.4-m f/8.9 reflector + CCD.
I52 Steward Observatory, Mt. Lemmon Station.  Observer J. A. Johnson.
    Measurers E. J. Christensen, D. C. Fuls, A. R. Gibbs, A. D. Grauer,
    J. A. Johnson, R. A. Kowalski, S. M. Larson, G. J. Leonard, R. G. Matheny,
    R. L. Seaman, F. C. Shelly.  1.0-m reflector + CCD.
 
Orbital elements:
2016 WW7                                                 Earth MOID = 0.0333 AU
Epoch 2017 Feb. 16.0 TT = JDT 2457800.5                 MPC
M  73.14439              (2000.0)            P               Q
n   0.80083044     Peri.  350.01333     +0.57053043     -0.78427527
a   1.1484418      Node    64.79378     +0.77086926     +0.40901508
e   0.1136292      Incl.   15.62779     +0.28329421     +0.46649647
P   1.23           H   26.8           G   0.15           U   7
Residuals in seconds of arc
161125 G96 (0.7-  2.6+)   161125 I52  0.9+  1.0+    161126 F51  0.1-  0.0
161125 G96  0.6-  0.8+    161125 I52  0.2+  0.8-    161126 F51  0.3-  0.1+
161125 G96  0.3+  0.2-    161125 I52  0.1-  0.4-    161127 104  0.1+  0.1-
161125 H01  0.2-  0.2+    161125 I52  0.2+  0.7-    161127 104  1.4+  0.6+
161125 H01  0.0   0.1+    161126 G96 (0.6+  2.4-)   161127 104  0.3-  0.5-
161125 H01  0.0   0.0     161126 G96 (0.6+  2.3-)
161125 H01  0.1-  0.0     161126 G96  0.1+  0.4-

Ephemeris:
2016 WW7                 a,e,i = 1.15, 0.11, 16                  q = 1.0179
Date    TT    R. A. (2000) Decl.     Delta      r     Elong.  Phase     V
2016 10 28    05 43 16.5 -54 56 33   0.1402  1.0238    98.5    73.7    25.2
...
2016 11 12    05 35 11.1 -43 54 48   0.07570 1.0181   110.0    66.0    23.6
...
2016 11 20    05 19 30.4 -22 33 14   0.04434 1.0180   131.6    46.6    21.8
...
2016 11 26    04 55 37.5 +18 00 07   0.03302 1.0193   168.3    11.3    20.1
2016 11 27    04 49 58.4 +26 16 55   0.03336 1.0196   169.9     9.8    20.1
2016 11 28    04 43 41.7 +34 12 21   0.03441 1.0200   165.7    13.8    20.3
...
2016 12 04    03 48 37.3 +66 00 56   0.05127 1.0227   135.4    42.6    22.1
...
2016 12 12    01 36 16.1 +79 23 04   0.08489 1.0281   118.8    57.0    23.6
...
2016 12 27    22 25 40.2 +81 45 45   0.1518  1.0430   109.1    63.0    25.0

A. U. Tomatic                (C) Copyright 2016 MPC           M.P.E.C. 2016-W96




More information about the Iaude mailing list